Regional Weather Roundup
Issued by NWS

Home | Current Version | Previous Version | Text Only | Print | Product List | Glossary Off
Versions: 1 2 3 4 5 6 7 8 9 10 11 12 13 14 15 16 17 18 19 20 21 22 23 24 25 26 27 28 29 30 31 32 33 34 35 36 37 38 39 40 41 42 43 44 45 46 47 48 49 50

691
ASUS43 KFSD 280410
RWRSD

WEATHER ROUNDUP FOR SOUTH DAKOTA
NATIONAL WEATHER SERVICE SIOUX FALLS SD
1100 PM CDT THU JUL 27 2017

NOTE: "FAIR" INDICATES FEW OR NO CLOUDS BELOW 12,000 FEET WITH NO
SIGNIFICANT WEATHER AND/OR OBSTRUCTIONS TO VISIBILITY.


SDZ001>005-009-010-012>017-280500-
NORTHWEST AND NORTH CENTRAL SOUTH DAKOTA

CITY           SKY/WX    TMP DP  RH WIND       PRES   REMARKS
BUFFALO          N/A     64  55  72 SE8       29.99R
FAITH            N/A     68  60  75 E5        30.02R
MOBRIDGE       CLOUDY    73  59  61 SE7       30.00S
$$

SDZ012>016-024>037-041>051-057-063-072>074-280500-
SOUTHWEST AND SOUTH CENTRAL SOUTH DAKOTA

CITY           SKY/WX    TMP DP  RH WIND       PRES   REMARKS
RAPID CTY ARPT CLOUDY    60  56  86 SW12      30.06R
PIERRE         CLOUDY    76  58  53 SE13      30.01R
CUSTER         MOCLDY    54  51  90 NE7       30.18R
ELLSWORTH AFB  CLEAR     61  59  92 SW14      30.06R
PHILIP         LGT RAIN  68  63  84 SE24G31   29.96F
PINE RIDGE     LGT RAIN  62  60  93 E3        30.11S
SPEARFISH      FAIR      63  55  77 NE6       30.03R
WINNER         FAIR      73  60  63 SE8       30.06R
$$

SDZ004>011-016>023-039-040-280500-
NORTHEAST SOUTH DAKOTA

CITY           SKY/WX    TMP DP  RH WIND       PRES   REMARKS
ABERDEEN       CLOUDY    72  63  73 E7        30.05S
WATERTOWN      CLEAR     69  59  70 E3        30.07S
BROOKINGS      PTCLDY    71  63  75 E3        30.07F
SISSETON         N/A     67  62  84 CALM      30.05S
$$

SDZ017-020-022-023-036>040-048>070-280500-
SOUTHEAST SOUTH DAKOTA

CITY           SKY/WX    TMP DP  RH WIND       PRES   REMARKS
SIOUX FALLS    PTCLDY    69  64  84 CALM      30.05F
HURON          CLEAR     71  63  75 E5        30.04R
CHAMBERLAIN    PTCLDY    74  64  71 SE6       30.05R
MITCHELL       CLOUDY    69  65  86 SE6       30.05R
YANKTON        MOCLDY    69  64  84 NE5       30.05R
$$

ABBREVIATIONS USED IN REMARKS
   TC - TEMPERATURE IN CELSIUS
  WCI - WIND CHILL INDEX
   HX - HEAT INDEX
  VSB - VISIBILITY





USA.gov is the U.S. government's official web portal to all federal, state and local government web resources and services.